Regional Weather Roundup
Issued by NWS Newport/Morehead, NC

Home | Current Version | Previous Version | Text Only | Print | Product List | Glossary On
Versions: 1 2 3 4 5 6 7 8 9 10 11 12 13 14 15 16 17 18 19 20 21 22 23 24 25 26 27 28 29 30 31 32 33 34 35 36 37 38 39 40 41 42 43 44 45 46 47 48 49 50
000
ASUS42 KMHX 020425
RWRMHX
WEATHER ROUNDUP FOR EASTERN NORTH CAROLINA
NATIONAL WEATHER SERVICE NEWPORT/MOREHEAD CITY NC
1200 AM EDT THU JUL 02 2015

NOTE: "FAIR" INDICATES FEW OR NO CLOUDS BELOW 12,000 FEET
WITH NO SIGNIFICANT WEATHER AND/OR OBSTRUCTIONS TO VISIBILITY

NCZ015>017-031-032-045>047-102-103-020500-
NORTH COAST

CITY           SKY/WX    TMP DP  RH WIND       PRES   REMARKS
EDENTON        CLEAR     78  72  80 W9        29.95R
ELIZABETH CITY CLEAR     76  72  87 SW9       29.94R
KITTY HAWK     PTCLDY    78  73  83 SW7       29.93S
MANTEO         PTCLDY    79  74  85 SW10      29.95S

$$

NCZ045>047-081-094-103-104-020500-
CENTRAL COAST

CITY           SKY/WX    TMP DP  RH WIND       PRES   REMARKS
FRISCO         MOCLDY    79  75  87 SW12G20   29.96F
SWANQUARTER      N/A     79 N/A N/A W9G16     29.94R

$$

NCZ095-097-098-100-101-020500-
SOUTHERN COAST

CITY           SKY/WX    TMP DP  RH WIND       PRES   REMARKS
BEAUFORT       PTCLDY    79  77  94 SW8       29.98R
CEDAR ISLAND     N/A     79 N/A N/A SW7       30.00S
JACKSONVILLE   PTCLDY    76  73  91 SW6       29.97S
PINEY ISLAND   CLEAR    N/A N/A N/A SW8       29.97S
WILMINGTON     PTCLDY    79  71  76 SW9       29.99S


$$

NCZ011>013-027>030-043-044-078>080-089-090>093-098-020500-
COASTAL PLAIN

CITY           SKY/WX    TMP DP  RH WIND       PRES   REMARKS
AHOSKIE        PTCLDY    74  70  86 S5        29.94F
CLINTON        CLEAR     74  73  95 CALM      29.98S
ELIZABETHTOWN  CLEAR     77  72  84 SW5       29.98F
GOLDSBORO      PTCLDY    75  72  90 S3        29.94F
GREENVILLE     MOCLDY    77  72  83 SW5       29.97F
HAVELOCK       CLEAR     76  73  91 SW6       29.99R
KENANSVILLE    PTCLDY    73  71  95 CALM      29.98S
KINSTON        MOCLDY    75  72  91 S6        29.97S
NEW BERN       PTCLDY    75  71  87 SW5       29.98S
RICHLANDS      MOCLDY    73  70  88 SW6       29.98S
ROCKY MOUNT    CLOUDY    78  72  81 S7        29.94F
WASHINGTON     PTCLDY    76  71  85 SW5       29.96S
WHITEVILLE     CLEAR     76  71  84 SW5       29.98F

$$

AMZ130-135-150-152-154-156-158-170-250-252-270-ANZ085-086-088-633-658-670-020500-
MARINE OBSERVATIONS

STATION/POSITION TIME  TEMP    WIND        PRES    WAVE   SWELL
                       AIR SEA DIR/SP/G            HT/PER HT/PER
                 (UTC) (F)     (DEG/KT/KT) (MB)    (FT/S) (FT/S)
CHESAPEAKE LIGHT 0400   79     210/ 11/ 12 1013.7
64 E VA BEACH    0350   78 77  210/ 10/ 12 1013.2    5/ 8   5/ 8
DUCK             0400   80 63  240/ 11/ 14 1012.7
2 E DUCK         0311      71                N/A     2/ 8
OREGON INLET     0400   79 80  230/ 11/ 12 1013.9
13E OREGON INLT  0400      74                N/A     4/ 8
HATTERAS CG      0400   77 81  220/  8/ 13 1014.3
DIAMOND BUOY     0350   80 83  240/ 17/ 21 1014.4    5/ 8   2/ 8
CAPE LOOKOUT     0400   79     230/ 11/ 14 1015.0
BEAUFORT LAB     0400   80 81  240/  7/ 12 1014.4
30 SE NEW RVR IN 0308   80 80  250/ 16/ 19 1015.4
27 SE WRIGHTSVLE 0400      80  250/ 16/ 17   N/A
5 SE WRIGHTSVLE  0308   81 80  240/ 12/ 16 1015.6
225 S CAPE HAT   0350   82 80  230/ 14/ 17 1019.0    6/ 8   3/ 8
41 SE CHARLESTON 0350   82 82  220/ 14/ 16 1016.5    4/ 6   2/ 8

$$



USA.gov is the U.S. government's official web portal to all federal, state and local government web resources and services.